Location: Kitt Peak
(31.9639°N, 111.5992°W)
Time: 19:43:32
(UTC-07:00)

SRMSAT - Visible Passes

Search period start: 14 December 2025 00:00
Search period end: 24 December 2025 00:00
Orbit: 845 x 863 km, 20.0° (Epoch: 14 December)

Date Brightness Start Highest point End Pass type
(mag) Time Alt. Az. Time Alt. Az. Time Alt. Az.
14 Dec ? 05:03:53 15° SSW 05:06:18 18° SSE 05:10:16 10° SE visible
14 Dec ? 06:50:04 10° SW 06:54:49 25° S 06:59:35 10° SE visible
15 Dec ? 04:51:09 18° S 04:52:19 19° S 04:56:27 10° SE visible
15 Dec ? 06:36:04 10° SW 06:40:50 25° S 06:45:37 10° SE visible
16 Dec ? 04:38:22 21° S 04:38:22 21° S 04:42:36 10° ESE visible
16 Dec ? 06:22:05 10° SW 06:26:51 25° S 06:31:38 10° SE visible
17 Dec ? 04:25:31 20° SSE 04:25:31 20° SSE 04:28:44 10° ESE visible
17 Dec ? 06:08:07 10° SW 06:12:52 25° S 06:17:38 10° SE visible
18 Dec ? 04:12:38 18° SE 04:12:38 18° SE 04:14:51 10° ESE visible
18 Dec ? 05:54:35 12° SW 05:58:53 25° S 06:03:37 10° SE visible
19 Dec ? 03:59:43 15° SE 03:59:43 15° SE 04:00:56 10° ESE visible
19 Dec ? 05:41:39 16° SW 05:44:54 24° S 05:49:35 10° SE visible
20 Dec ? 03:46:47 11° SE 03:46:47 11° SE 03:47:00 10° ESE visible
20 Dec ? 05:28:43 19° SW 05:30:55 24° S 05:35:32 10° SE visible
21 Dec ? 05:15:45 21° SSW 05:16:56 23° S 05:21:28 10° SE visible
22 Dec ? 05:02:46 22° S 05:02:57 22° S 05:07:23 10° SE visible
22 Dec ? 06:48:54 10° SW 06:51:24 13° SSW 06:53:55 10° S visible
23 Dec ? 04:49:47 20° S 04:49:47 20° S 04:53:17 10° SE visible
23 Dec ? 06:35:33 10° SW 06:37:25 11° SSW 06:39:16 10° S visible
